Location: Newark
(20.0000°S, 47.0000°E)
Time: 01:15:08
(UTC+00:00)

Envisat - Visible Passes

Search period start: 21 October 2019 00:00
Search period end: 31 October 2019 00:00
Orbit: 764 x 766 km, 98.1° (Epoch: 20 October)

Date Brightness Start Highest point End Pass type
(mag) Time Alt. Az. Time Alt. Az. Time Alt. Az.
21 Oct 5.7 16:36:12 10° SSW 16:39:45 19° WSW 16:43:17 10° WNW visible
22 Oct 4.0 15:58:18 10° S 16:03:13 50° WSW 16:08:06 10° NNW visible
23 Oct 3.0 15:21:30 10° SSE 15:26:33 60° E 15:31:32 10° N visible
24 Oct 5.3 16:24:26 10° SSW 16:28:34 25° WSW 16:32:41 10° NW visible
25 Oct 3.4 15:46:55 10° S 15:52:00 68° WSW 15:57:01 10° NNW visible
26 Oct 6.2 16:51:39 10° SW 16:53:50 13° WSW 16:56:02 10° W visible
27 Oct 4.8 16:12:49 10° S 16:17:22 33° WSW 16:21:54 10° NW visible
28 Oct 3.0 15:35:38 10° SSE 15:40:46 90° WSW 15:45:50 10° NNW visible
29 Oct 5.9 16:39:25 10° SSW 16:42:41 17° WSW 16:45:55 10° WNW visible
30 Oct 4.2 16:01:20 10° S 16:06:10 44° WSW 16:10:58 10° NNW visible
